Find Prospero

NORAD ID: 5580 Int'l Des: 1971-093 Owner: RAE Country: UK operational
LEOPOLAR

实时位置

正在加载3D地球...

关于 Prospero

正在加载描述...

即将过境

Passes for default location (London). Set your location on the main map for personalized predictions.

高度历史

Loading altitude history...

两行轨道根数

1 5580U 71093A 26105.40609499 .00001357 00000-0 28523-3 0 9992
2 5580 82.0408 345.9433 0502651 47.2336 316.9991 14.01504019739739
Epoch: Apr 15, 2026 • Age: 13 hours

当前状态

高度 894.9 km
速度 7.41 km/s
星下点 40.93°N, 20.82°W
类型 other

Most Searched